• In Belarus
  • List of Countries
  • For 7 days
  • Water Temperature
  • Weather Map
  • Weather Widgets
  • user-avatar
    Login

    Hourly Weather Jaunde

    Today, 18 February, Tuesday

    Time Temperature Precipitation Wind Pressure Humidity
    00:00 +23°C° 0 mm 2 mps 697 mmHg 92%
    01:00 +23°C° 0 mm 1 mps 697 mmHg 94%
    02:00 +23°C° 0 mm 1 mps 697 mmHg 94%
    03:00 +22°C° 0 mm 1 mps 697 mmHg 95%
    04:00 +22°C° 0 mm 1 mps 696 mmHg 95%
    05:00 +23°C° 0 mm 1 mps 697 mmHg 94%
    06:00 +23°C° 0 mm 1 mps 697 mmHg 92%
    07:00 +23°C° 0 mm 1 mps 698 mmHg 91%
    08:00 +25°C° 0 mm 1 mps 698 mmHg 80%
    09:00 +28°C° 0 mm 1 mps 699 mmHg 68%
    10:00 +30°C° 0 mm 2 mps 700 mmHg 56%
    11:00 +32°C° 0 mm 2 mps 699 mmHg 49%
    12:00 +35°C° 0 mm 2 mps 699 mmHg 41%
    13:00 +37°C° 0 mm 2 mps 698 mmHg 34%
    14:00 +35°C° 0 mm 2 mps 697 mmHg 37%
    15:00 +34°C° 0 mm 2 mps 696 mmHg 41%
    16:00 +32°C° 0 mm 2 mps 695 mmHg 44%
    17:00 +31°C° 0 mm 2 mps 695 mmHg 51%
    18:00 +29°C° 0 mm 2 mps 696 mmHg 57%
    19:00 +28°C° 0 mm 2 mps 696 mmHg 64%
    20:00 +27°C° 0 mm 2 mps 696 mmHg 70%
    21:00 +25°C° 0 mm 2 mps 697 mmHg 76%
    22:00 +24°C° 0 mm 2 mps 697 mmHg 82%
    23:00 +24°C° 0 mm 2 mps 697 mmHg 86%

    Tomorrow, 19 February, Wednesday

    Time Temperature Precipitation Wind Pressure Humidity
    00:00 +23°C° 0 mm 1 mps 697 mmHg 89%
    01:00 +22°C° 0 mm 1 mps 697 mmHg 92%
    02:00 +22°C° 0 mm 1 mps 697 mmHg 94%
    03:00 +22°C° 0 mm 1 mps 697 mmHg 95%
    04:00 +21°C° 0 mm 1 mps 696 mmHg 97%
    05:00 +21°C° 0 mm 1 mps 697 mmHg 96%
    06:00 +21°C° 0 mm 1 mps 697 mmHg 96%
    07:00 +21°C° 0 mm 1 mps 697 mmHg 95%
    08:00 +25°C° 0 mm 1 mps 698 mmHg 79%
    09:00 +28°C° 0 mm 1 mps 698 mmHg 63%
    10:00 +31°C° 0 mm 1 mps 699 mmHg 46%
    11:00 +33°C° 0 mm 1 mps 698 mmHg 39%
    12:00 +35°C° 0 mm 1 mps 698 mmHg 31%
    13:00 +38°C° 0 mm 2 mps 697 mmHg 23%
    14:00 +38°C° 0 mm 2 mps 697 mmHg 22%
    15:00 +37°C° 0 mm 1 mps 696 mmHg 22%
    16:00 +37°C° 0 mm 1 mps 695 mmHg 21%
    17:00 +35°C° 0 mm 1 mps 695 mmHg 26%
    18:00 +32°C° 0 mm 1 mps 695 mmHg 30%
    19:00 +30°C° 0 mm 1 mps 695 mmHg 35%
    20:00 +29°C° 0 mm 1 mps 695 mmHg 46%
    21:00 +28°C° 0 mm 1 mps 696 mmHg 57%
    22:00 +26°C° 0 mm 2 mps 696 mmHg 68%
    23:00 +25°C° 0 mm 1 mps 696 mmHg 75%

    Day after tomorrow, 20 February, Thursday

    Time Temperature Precipitation Wind Pressure Humidity
    00:00 +24°C° 0 mm 1 mps 696 mmHg 82%
    01:00 +23°C° 0 mm 1 mps 696 mmHg 89%
    02:00 +22°C° 0 mm 1 mps 696 mmHg 92%
    03:00 +20°C° 0 mm 0 mps 696 mmHg 94%
    04:00 +19°C° 0 mm 0 mps 695 mmHg 97%
    05:00 +19°C° 0 mm 0 mps 696 mmHg 96%
    06:00 +20°C° 0 mm 0 mps 696 mmHg 94%
    07:00 +22°C° 0 mm 1 mps 696 mmHg 93%
    08:00 +25°C° 0 mm 1 mps 697 mmHg 78%
    09:00 +28°C° 0 mm 1 mps 698 mmHg 63%
    10:00 +32°C° 0 mm 1 mps 698 mmHg 48%
    11:00 +34°C° 0 mm 1 mps 698 mmHg 41%
    12:00 +36°C° 0 mm 1 mps 697 mmHg 34%
    13:00 +40°C° 0 mm 1 mps 697 mmHg 27%
    14:00 +37°C° 0 mm 1 mps 695 mmHg 32%
    15:00 +36°C° 0 mm 2 mps 694 mmHg 37%
    16:00 +34°C° 0 mm 2 mps 693 mmHg 42%
    17:00 +31°C° 0 mm 2 mps 694 mmHg 48%
    18:00 +30°C° 0 mm 2 mps 694 mmHg 55%
    19:00 +29°C° 0 mm 2 mps 694 mmHg 61%
    20:00 +27°C° 0 mm 2 mps 695 mmHg 68%
    21:00 +26°C° 0 mm 2 mps 695 mmHg 75%
    22:00 +25°C° 0 mm 2 mps 696 mmHg 82%
    23:00 +24°C° 0 mm 2 mps 696 mmHg 84%

    21 February, Friday

    Time Temperature Precipitation Wind Pressure Humidity
    00:00 +23°C° 0 mm 2 mps 696 mmHg 86%
    01:00 +23°C° 0 mm 1 mps 696 mmHg 88%
    02:00 +22°C° 0 mm 1 mps 696 mmHg 90%
    03:00 +22°C° 0 mm 1 mps 696 mmHg 92%
    04:00 +21°C° 0 mm 1 mps 696 mmHg 95%
    05:00 +22°C° 0 mm 1 mps 696 mmHg 94%
    06:00 +22°C° 0 mm 1 mps 696 mmHg 94%
    07:00 +20°C° 0 mm 0 mps 696 mmHg 93%
    14:00 +36°C° 0 mm 1 mps 696 mmHg 30%
    15:00 +36°C° 0 mm 1 mps 695 mmHg 30%
    16:00 +35°C° 0 mm 1 mps 695 mmHg 29%
    17:00 +34°C° 0 mm 1 mps 695 mmHg 34%
    18:00 +32°C° 0 mm 1 mps 695 mmHg 40%
    19:00 +30°C° 0 mm 1 mps 695 mmHg 45%
    20:00 +28°C° 0 mm 1 mps 695 mmHg 56%
    21:00 +27°C° 0 mm 2 mps 696 mmHg 66%
    22:00 +25°C° 0 mm 2 mps 696 mmHg 77%
    23:00 +24°C° 0 mm 1 mps 696 mmHg 81%

    22 February, Saturday

    Time Temperature Precipitation Wind Pressure Humidity
    00:00 +23°C° 0 mm 1 mps 696 mmHg 85%
    01:00 +22°C° 0 mm 1 mps 696 mmHg 89%
    02:00 +22°C° 0 mm 1 mps 696 mmHg 90%
    03:00 +22°C° 0 mm 1 mps 696 mmHg 92%
    04:00 +21°C° 0 mm 1 mps 695 mmHg 94%
    05:00 +22°C° 0 mm 1 mps 696 mmHg 94%
    06:00 +22°C° 0 mm 1 mps 696 mmHg 94%
    07:00 +22°C° 0 mm 1 mps 696 mmHg 94%
    08:00 +24°C° 0 mm 1 mps 697 mmHg 86%
    09:00 +26°C° 0 mm 1 mps 698 mmHg 77%
    10:00 +27°C° 0 mm 1 mps 698 mmHg 68%
    11:00 +31°C° 0 mm 1 mps 698 mmHg 54%
    12:00 +35°C° 0 mm 1 mps 698 mmHg 39%
    13:00 +40°C° 0 mm 1 mps 698 mmHg 25%
    14:00 +39°C° 0 mm 1 mps 697 mmHg 25%
    15:00 +39°C° 0 mm 1 mps 696 mmHg 25%
    16:00 +38°C° 0 mm 2 mps 695 mmHg 25%
    17:00 +35°C° 0 mm 2 mps 695 mmHg 38%
    18:00 +31°C° 0 mm 2 mps 695 mmHg 52%
    19:00 +28°C° 0 mm 3 mps 695 mmHg 66%
    20:00 +27°C° 0 mm 3 mps 696 mmHg 70%
    21:00 +26°C° 0 mm 2 mps 696 mmHg 75%
    22:00 +24°C° 0 mm 2 mps 697 mmHg 80%
    23:00 +24°C° 0 mm 2 mps 697 mmHg 83%

    23 February, Sunday

    Time Temperature Precipitation Wind Pressure Humidity
    00:00 +23°C° 0 mm 2 mps 697 mmHg 85%
    01:00 +23°C° 0 mm 2 mps 697 mmHg 88%
    02:00 +23°C° 0.2 mm 1 mps 697 mmHg 90%
    03:00 +22°C° 0.2 mm 1 mps 696 mmHg 92%
    04:00 +22°C° 0.2 mm 1 mps 696 mmHg 94%
    05:00 +22°C° 0 mm 1 mps 696 mmHg 95%
    06:00 +22°C° 0 mm 1 mps 697 mmHg 96%
    07:00 +22°C° 0 mm 1 mps 697 mmHg 96%
    08:00 +25°C° 0 mm 1 mps 698 mmHg 83%
    09:00 +27°C° 0 mm 1 mps 699 mmHg 70%
    10:00 +30°C° 0 mm 2 mps 699 mmHg 57%
    11:00 +32°C° 0 mm 2 mps 699 mmHg 48%
    12:00 +35°C° 0 mm 2 mps 698 mmHg 38%
    13:00 +37°C° 0 mm 2 mps 697 mmHg 29%
    14:00 +38°C° 0 mm 2 mps 697 mmHg 28%
    15:00 +38°C° 0 mm 2 mps 696 mmHg 27%
    16:00 +38°C° 0 mm 2 mps 695 mmHg 26%
    17:00 +35°C° 0 mm 2 mps 695 mmHg 37%
    18:00 +31°C° 0 mm 3 mps 695 mmHg 48%
    19:00 +29°C° 0 mm 3 mps 695 mmHg 59%
    20:00 +27°C° 0 mm 3 mps 696 mmHg 67%
    21:00 +26°C° 0 mm 3 mps 696 mmHg 75%
    22:00 +25°C° 0 mm 2 mps 697 mmHg 83%
    23:00 +24°C° 0 mm 2 mps 697 mmHg 84%
    Show more